Regional Weather Roundup
Issued by NWS

Home | Current Version | Previous Version | Graphics & Text | Print | Product List | Glossary On
Versions: 1 2 3 4 5 6 7 8 9 10 11 12 13 14 15 16 17 18 19 20 21 22 23 24 25 26 27 28 29 30 31 32 33 34 35 36 37
000
ASUS43 KDMX 230507
RWRIA

WEATHER ROUNDUP FOR IOWA
NATIONAL WEATHER SERVICE DES MOINES IA
1200 AM CDT THU OCT 23 2014

NOTE: "FAIR" INDICATES FEW OR NO CLOUDS BELOW 12,000 FEET WITH NO
SIGNIFICANT WEATHER AND/OR OBSTRUCTIONS TO VISIBILITY.

* - THESE STATIONS ARE NOT NWS STATIONS...THUS NOT UNDER NWS
QUALITY CONTROL.  THEY ALSO DO NOT REPORT WEATHER SUCH
AS PRECIPITATION OR FOG.

IAZ001>003-012>014-020>022-031>034-043>046-230600-
   NORTHWEST IOWA

CITY           SKY/WX    TMP DP  RH WIND       PRES   REMARKS
CARROLL *      CLOUDY    55  55 100 S10       30.07F
CHEROKEE *     RAIN      59  59 100 S6        30.02F
DENISON *      CLOUDY    57  57 100 S14       30.03F
LE MARS *      CLOUDY    59  59 100 CALM      30.03S
ORANGE CITY *  CLOUDY    59  57  94 S5        30.03S FOG
SHELDON *      CLOUDY    57  57 100 S8        30.02S FOG
SIOUX CITY     CLOUDY    60  58  92 CALM      30.02F
SPENCER        CLOUDY    58  57  97 S10       30.03S
STORM LAKE *   CLOUDY    55  55 100 S12       30.04F
$$

IAZ055>058-069>071-079>083-090>094-230600-
   SOUTHWEST IOWA

CITY           SKY/WX    TMP DP  RH WIND       PRES   REMARKS
ATLANTIC *     LGT RAIN  57  55  94 SE10G18   30.06F
AUDUBON *      LGT RAIN  55  50  82 S7        30.09S
CLARINDA *     HVY RAIN  59  55  88 W7        30.13R
COUNCIL BLFS * CLOUDY    61  61 100 SE7       30.05S FOG
CRESTON *      CLOUDY    57  46  67 SE13      30.08F
HARLAN  *      CLOUDY    59  59 100 S8        30.10F
LAMONI         PTCLDY    55  44  66 SE12      30.11F
RED OAK *      LGT RAIN  59  57  94 SE6       30.08F
SHENANDOAH *   LGT RAIN  59  59 100 SE10      30.07F
$$

IAZ047>049-059>061-072>074-084-230600-
   CENTRAL IOWA

CITY           SKY/WX    TMP DP  RH WIND       PRES   REMARKS
AMES           CLOUDY    53  44  71 CALM      30.12R
ANKENY *       MOCLDY    55  45  67 W12       30.12R
CHARITON *     MOCLDY    54  43  66 SE13      30.11F
DES MOINES     MOCLDY    56  44  64 S12       30.09F
GRINNELL*      MOCLDY    52  41  66 SE13      30.13F
KNOXVILLE *    MOCLDY    54  41  62 SE12G18   30.10F
MARSHALLTOWN   CLOUDY    52  42  69 SE9       30.10F
PELLA *        MOCLDY    53  42  66 SE10      30.12F
PERRY *        RAIN      55  52  88 S5        30.13S
$$

IAZ004>006-015-016-023>025-035-036-230600-
   NORTH CENTRAL IOWA

CITY           SKY/WX    TMP DP  RH WIND       PRES   REMARKS
ALGONA *       CLOUDY    54  52  94 S12       30.05F
CLARION *      LGT RAIN  52  48  87 S12       30.08F
ESTHERVILLE    CLOUDY    54  53  97 S13       30.03S
FORT DODGE *   CLOUDY    55  48  76 S7        30.08F
MASON CITY     CLOUDY    52  43  71 S10       30.10F
FOREST CITY *  LGT RAIN  52  45  76 SE8       30.07F
IOWA FALLS *   CLOUDY    54  43  66 S7        30.13R
$$

IAZ007>011-017>019-026>030-037>042-050>054-066-230600-
   NORTHEAST IOWA

CITY           SKY/WX    TMP DP  RH WIND       PRES   REMARKS
CEDAR RAPIDS   MOCLDY    49  40  71 SE8       30.16F
CHARLES CITY * MOCLDY    54  39  58 SW9       30.14R
CLINTON *      PTCLDY    45  36  70 SE10      30.22F
DECORAH *      MOCLDY    50  41  71 S9        30.12F
DUBUQUE        PTCLDY    42  37  82 SW9       30.19F
MONTICELLO *   CLEAR     46  39  76 SE5       30.18F
OELWEIN *      PTCLDY    52  39  62 S14       30.14F
WATERLOO       MOCLDY    52  39  61 S15       30.11F
$$

IAZ064-065-067-068-078-230600-
   EAST CENTRAL IOWA

CITY           SKY/WX    TMP DP  RH WIND       PRES   REMARKS
DAVENPORT      PTCLDY    44  35  70 S9        30.20F
IOWA CITY      MOCLDY    45  39  79 SE6       30.19F
MT. PLEASANT * PTCLDY    46  39  76 SE6       30.18F
MUSCATINE *    CLEAR     41  37  87 CALM      30.19F
QUAD CITIES    CLEAR     43  35  73 SE3       30.20F
$$

IAZ062-063-075>077-085>089-095>099-230600-
   SOUTHEAST IOWA

CITY           SKY/WX    TMP DP  RH WIND       PRES   REMARKS
BURLINGTON     PTCLDY    49  39  68 S10       30.20S
FAIRFIELD *    CLEAR     46  39  76 SE9       30.17F
FORT MADISON * CLEAR     52  43  71 SE7       30.20S
KEOKUK *       CLEAR     46  41  81 SE7       30.19S
OSKALOOSA *      N/A     46  41  81 SE8       30.15F
CENTERVILLE *  CLEAR     50  41  71 SE6       30.15F
OTTUMWA        PTCLDY    52  40  63 S12       30.14F
WASHINGTON *   CLEAR     46  41  81 SE7       30.18S
$$

ABBREVIATIONS USED IN REMARKS
   TC - TEMPERATURES IN CELSIUS
  WCI - WIND CHILL INDEX
   HX - HEAT INDEX
  VSB - VISIBILITY
$$




USA.gov is the U.S. government's official web portal to all federal, state and local government web resources and services.